Weather History for KLIC - January, 2013

Change the Weather History Date:

Friday, January 25, 2013

  Actual Average Record
Temperature  
Mean Temperature 33 °F -  
Max Temperature 51 °F - 62 °F (2002)
Min Temperature 15 °F - 3 °F (2011)
Degree Days  
Heating Degree Days 32    
Month to date heating degree days 1053  
Cooling Degree Days 0    
Month to date cooling degree days 0  
Moisture  
Dew Point 21 °F    
Average Humidity 68    
Maximum Humidity 96    
Minimum Humidity 35    
Precipitation  
Precipitation 0.00 in - 0.04 in (2004)
Month to date precipitation 0.16  
Year to date precipitation 0.16  
Sea Level Pressure  
Sea Level Pressure 30.17 in    
Wind  
Wind Speed 6 mph (SW)    
Max Wind Speed 22 mph    
Max Gust Speed 29 mph    
Visibility 10 miles    
Events      
T = Trace of Precipitation, MM = Missing Value Source: NWS Daily Summary

Daily Weather History Graph

Daily Weather History Graph

Search for Another Location

Airport or City:

Trip Planner

Search our weather history database for the weather conditions in past years. The results will help you decide how hot, cold, wet, or windy it might be!

Date:

Astronomy

Jan. 25, 2013 Rise Set
Actual Time 7:07 AM MST 5:07 PM MST
Civil Twilight 6:38 AM MST 5:36 PM MST
Nautical Twilight 6:05 AM MST 6:08 PM MST
Astronomical Twilight 5:34 AM MST 6:40 PM MST
Moon 4:06 PM MST (1/25) 5:48 AM MST (1/25)
Length of Visible Light 10h 57m
Length of Day
10h 00m
Waxing Gibbous, 98% of the Moon is Illuminated
Jan 25
Waxing Gibbous
Jan 26
Full
Feb 3
Last Quarter
Feb 10
New
Feb 17
First Quarter

Hourly Weather History & Observations

Time (MST) Temp. Windchill Dew Point Humidity Pressure Visibility Wind Dir Wind Speed Gust Speed Precip Events Conditions
12:55 AM 27.0 °F 21.6 °F 18.0 °F 69% 30.15 in 10.0 mi WNW 4.6 mph - N/A   Clear
1:55 AM 33.1 °F 30.0 °F 24.1 °F 70% 30.12 in 10.0 mi North 3.5 mph - N/A   Clear
2:55 AM 30.9 °F - 24.1 °F 76% 30.12 in 10.0 mi Calm Calm - N/A   Clear
3:55 AM 25.0 °F 18.1 °F 21.0 °F 85% 30.15 in 10.0 mi SW 5.8 mph - N/A   Clear
4:55 AM 19.9 °F - 18.0 °F 92% 30.21 in 10.0 mi Calm Calm - N/A   Clear
5:55 AM 18.0 °F - 17.1 °F 96% 30.25 in 10.0 mi Calm Calm - N/A   Clear
6:55 AM 17.1 °F 11.7 °F 15.1 °F 92% 30.28 in 10.0 mi North 3.5 mph - N/A   Clear
7:55 AM 21.0 °F 14.6 °F 18.0 °F 88% 30.28 in 10.0 mi North 4.6 mph - N/A   Clear
8:55 AM 34.0 °F 31.0 °F 26.1 °F 73% 30.23 in 10.0 mi SSE 3.5 mph - N/A   Clear
9:55 AM 43.0 °F 36.4 °F 24.1 °F 47% 30.19 in 10.0 mi South 12.7 mph - N/A   Clear
10:55 AM 46.0 °F 39.0 °F 25.0 °F 44% 30.18 in 10.0 mi South 17.3 mph - N/A   Clear
11:55 AM 48.0 °F - 24.1 °F 39% 30.17 in 10.0 mi South 19.6 mph - N/A   Clear
12:55 PM 48.9 °F - 25.0 °F 39% 30.13 in 10.0 mi South 18.4 mph 24.2 mph N/A   Clear
1:55 PM 50.0 °F - 25.0 °F 38% 30.07 in 10.0 mi South 16.1 mph 24.2 mph N/A   Clear
2:55 PM 51.1 °F - 24.1 °F 35% 30.07 in 10.0 mi South 16.1 mph 24.2 mph N/A   Clear
3:55 PM 48.9 °F - 24.1 °F 38% 30.10 in 10.0 mi South 13.8 mph - N/A   Clear
4:55 PM 43.0 °F 38.2 °F 24.1 °F 47% 30.14 in 10.0 mi SSE 8.1 mph - N/A   Clear
5:55 PM 34.0 °F - 21.0 °F 59% 30.19 in 10.0 mi Calm Calm - N/A   Clear
6:55 PM 27.0 °F - 19.9 °F 75% 30.22 in 10.0 mi Calm Calm - N/A   Clear
7:55 PM 24.1 °F 16.0 °F 19.0 °F 81% 30.21 in 10.0 mi North 6.9 mph - N/A   Clear
8:55 PM 21.9 °F 17.2 °F 18.0 °F 85% 30.16 in 10.0 mi NNW 3.5 mph - N/A   Clear
9:55 PM 19.9 °F 14.9 °F 18.0 °F 92% 30.14 in 10.0 mi North 3.5 mph - N/A   Clear
10:55 PM 21.9 °F - 18.0 °F 85% 30.12 in 10.0 mi Calm Calm - N/A   Clear
11:55 PM 19.9 °F 13.4 °F 18.0 °F 92% 30.09 in 10.0 mi NNW 4.6 mph - N/A   Clear